Showing default

LEMUR 2 EMBRIONOVIS, 56970

Orbit data source: Space-Track

LEMUR 2 EMBRIONOVIS, 56970 is an American payload satellite in SSO that was launched on Mon, 12 Jun 2023 UTC via an FALCON 9 launch vehicle from the Air Force Western Test Range (AFWTR). Payload-class satellites include a variety of spacecraft equipped with specific instruments for various scientific and technological missions. These include communications satellites like Starlink; space stations such as the ISS; scientific satellites like the Hubble; Earth observation satellites from companies like Planet Labs, Umbra, and HawkEye 360; GPS; miniature CubeSats for education and research; and military/defense satellites.

Loading next visibility...
Identifier
56970, 2023-084AQ
Orbit
SSO
Country
Flag of USUS
Related business
Manufacturer
Spire/Glasgow
Mission
Operational Commercial Imaging
Bus & Motor
CUBESAT 6U, Unknown motor
Mass
10 kg wet, 10 kg dry
Launch date (UTC)
2023-06-12 (3 years ago)
Launch vehicle
FALCON 9
Launch site
Air Force Western Test Range (AFWTR)
Object type
Payload
Rocket body
Debris
Shape & HBR
Box + 2 Pan, 1.0 m
Radar Cross Section
0.077 m², Medium (>0.1 m² and < 1m²)

Expand to show TLE details & history
Last TLE update: 13 hours ago

TLE from 13 hours ago
0 LEMUR 2 EMBRIONOVIS
1 56970U 23084AQ  26065.60645407  .00011059  00000-0  33210-3 0  9993
2 56970  97.6126 206.1878 0008490 324.9078  35.1604 15.34581434151932
Epoch: 2026-03-06T14:33Z
TLE epoch observation values (Epoch: 2026-03-06T14:33:17.631Z)
Latitude
-0.00006°
Longitude
-176.4757°
Altitude
460.521 km
Speed
7.639 km/s
True Right ascension
13h 44m 45s
True Declination
0° 00' 00"
Sunlit
Object was in full shadow at epoch
Visualization orbit readout
Latitude
Unknown
Longitude
Unknown
Altitude
Unknown
Speed
Unknown
Apparent Right ascension
Unknown
Apparent Declination
Unknown
Sunlit
N/A
Visualization observer readout
Local Sidereal Time
07:04:59
Azimuth
Unknown
Elevation
Unknown
Doppler factor
Unknown
Orbital elements
Apogee altitude
464.924 km
Perigee altitude
453.315 km
Semi-major axis
6,837.256 km
Eccentricity
0.00085
Inclination
97.6126°
RAAN
206.1878°
Arg. of periapsis
324.9078°
True anomaly
35.21647°
Mean anomaly
35.1604°
Eccentric anomaly
35.18843°
Mean motion
3.83902 °/min
Orbital period
93.77 mins
BSTAR
0.0003321
Loading maneuver chart data...
Computing Atmospheric mass density...
Loading historical data...
Loading historical data...
Loading historical data...
Loading historical data...
Loading historical data...
Loading historical data...
Loading historical data...

Documentation

Showing up to 5 results
|